{"data":{"norad_id":58980,"intl_designator":"2024-031R","name":"STARLINK-31353","alt_names":[],"object_type":"PAYLOAD","status":"ACTIVE","operator":null,"country":"US","launch_date":"2024-02-15","launch_site_code":"AFWTR","launch_vehicle":null,"mission":null,"orbit_class":"UNKNOWN","rcs_meters":null,"size_class":null,"mass_kg":null,"dimensions":null,"purposes":["comms"],"wikipedia_slug":null,"has_3d_model":false,"image_url":null,"decayed_at":null,"tle_current":{"epoch":"2026-05-24T20:38:27.481920Z","epoch_age_seconds":87153,"freshness":"FRESH","line1":"1 58980U 24031R   26144.86004030  .00003333  00000+0  12455-3 0  9999","line2":"2 58980  53.1623 302.9990 0001326  90.8410 269.2743 15.30212324128173","mean_motion":15.30212324,"eccentricity":0.0001326,"inclination_deg":53.1623,"raan_deg":302.999,"arg_perigee_deg":90.841,"mean_anomaly_deg":269.2743,"bstar":0.00012455,"rev_number":12817,"period_min":94.104587802287,"perigee_km":474.26952281858,"apogee_km":476.08702202883,"semimajor_km":6853.3152724237,"source":"CELESTRAK","updated_at":"2026-05-25T13:38:18.796296Z"}}}